Parc Las Margaritas, Puerto Rico
Current Conditions -  °F | °C
As of 2:50 AM on Saturday 29 Nov 2014 (Local Time) from TJBQ Reporting Station
Clear Clear  
Wind Chill: 72°   Ceiling: Unl
Heat Index: 72°   Visibility: 10mi
Dew Point: 66°   Wind: 5mph
Humidity: 83%   Direction: 120°ESE
Pressure: 29.93"   Gusts: NA
Location:  18.0849°N, 67.1633°W
Report Text: TJBQ 290650Z 12004KT 10SM SKC 22/19 A2993 RMK RWY08 ATIS J
Loading
Personal Weather Stations






























Interactive Weather Map New forecast layout! Learn more

10-Day Weather Forecast

Advertisements
Track Severe Weather on mobile